Location: Northcutt
(34.7304°N, 84.4305°W)
Time: 09:09:14
(UTC+00:00)

A-11 Canister half - Pass Details

Date: 09 October 2022
Orbit: 1524 x 1685 km, 47.3° (Epoch: 30 November)

Event Time Altitude Azimuth Distance (km) Brightness Sun altitude
Rises 16:53:26 0° 200° (SSW) 4,716 12.1 48.2°
Reaches altitude 10° 16:56:51 10° 192° (SSW) 3,717 11.9 48.3°
Maximum altitude 17:05:03 36° 130° (SE) 2,253 11.0 48.6°
Drops below altitude 10° 17:13:11 10° 69° (ENE) 3,689 11.0 48.7°
Sets 17:16:31 0° 61° (ENE) 4,678 11.4 48.8°
